Wind_Speed
4 3 3 2 1 1 1 2 4 7 7 8 9 11 11 11 11 10 9 9 9 8 8 7 6 6 5 5 5 5 5 5 5 5 4 4 3 3 3 3 3 3 3 3 3 3 3 3 3
4 4 3 3 2 2 2 2 4 6 7 8 9 10 10 11 11 10 9 9 8 8 7 6 6 6 5 5 5 4 4 4 4 4 4 4 3 3 3 3 3 3 3 4 4 4 4 3 4
5 4 4 4 4 3 3 3 5 5 6 7 8 9 9 10 9 9 9 9 9 8 7 6 6 6 5 5 4 4 4 4 4 4 4 4 3 3 2 2 3 3 3 4 4 4 4 4 4
6 6 5 5 5 4 4 4 4 6 6 7 8 9 8 9 9 9 9 9 9 8 7 6 6 6 5 5 4 4 3 3 4 4 4 3 3 3 3 3 4 4 4 4 4 4 4 4 5
8 7 6 6 6 5 5 4 4 5 6 7 8 8 8 9 9 9 9 9 9 8 7 6 5 5 5 5 4 4 4 4 4 4 4 3 3 4 4 4 4 5 5 5 4 4 4 5 4
9 8 8 8 7 6 6 6 5 5 7 7 8 8 9 9 10 10 9 9 9 8 7 5 5 5 5 5 4 4 4 4 4 4 3 3 3 4 4 4 4 5 5 6 6 5 4 5 4
10 9 9 9 8 8 8 8 7 7 8 8 8 8 9 10 11 11 10 9 9 7 6 5 5 5 5 4 4 4 5 4 4 4 4 4 5 5 5 6 5 5 5 5 5 5 5 5 5
11 11 11 10 9 9 9 9 8 8 8 9 8 9 9 10 11 11 10 9 8 7 5 5 5 5 5 4 4 4 4 4 4 5 5 5 5 5 6 6 6 5 5 5 5 5 5 5 5
12 12 12 11 11 10 10 9 9 9 9 10 9 9 10 10 10 9 8 8 7 7 6 6 6 6 5 5 4 5 4 5 4 4 4 4 5 5 6 6 6 6 6 6 6 6 6 6 7
14 13 13 13 12 12 12 11 10 10 11 11 10 10 10 10 10 10 9 8 7 7 6 6 6 6 5 5 5 5 5 5 4 4 4 5 5 5 5 6 6 6 7 7 7 7 7 7 8
15 14 14 15 14 13 13 12 12 12 12 12 11 11 11 10 10 10 9 8 7 7 7 6 6 6 6 6 6 6 6 6 5 5 5 6 6 5 5 6 6 6 7 7 7 7 8 8 8
16 15 16 15 14 14 14 13 12 12 12 12 12 12 11 11 11 10 9 8 8 8 7 6 6 6 7 7 7 7 7 7 7 6 6 6 6 6 6 6 6 7 8 7 7 7 8 8 8
17 16 16 15 16 16 15 15 15 13 12 13 12 12 11 11 11 9 9 9 8 8 8 7 8 8 8 7 7 7 8 8 7 6 7 7 7 6 7 6 7 7 7 7 7 7 7 8 7
19 17 17 16 17 17 18 17 16 15 15 14 12 12 12 12 11 10 9 8 8 8 8 8 8 8 8 8 8 8 8 8 8 8 7 8 8 7 8 8 8 8 8 7 7 8 7 8 8
20 19 18 18 18 19 19 18 17 16 16 15 14 13 13 12 10 9 8 8 8 8 8 8 8 8 8 8 8 8 9 9 9 9 9 9 10 9 9 9 9 9 9 9 9 8 8 8 9
22 21 19 19 20 20 21 19 18 17 16 16 15 15 14 13 11 9 9 9 8 8 8 8 8 8 8 9 9 9 10 10 10 10 10 11 11 11 11 10 10 10 10 11 11 10 10 10 10
23 22 20 20 21 21 21 20 19 20 19 18 17 16 15 13 12 10 10 10 9 9 9 9 9 9 9 10 10 11 12 11 12 12 11 11 11 12 12 12 12 11 11 12 13 12 12 11 11
22 22 21 21 22 23 22 21 20 21 20 19 18 17 16 15 13 13 12 12 11 12 11 11 10 10 10 11 12 12 12 12 13 13 12 13 13 13 13 13 12 12 12 13 13 13 12 12 12
22 22 21 20 22 23 23 22 21 21 21 20 19 18 16 14 14 14 14 14 13 14 14 13 12 11 12 12 13 13 13 13 13 13 13 13 14 13 13 13 13 13 13 13 13 13 13 13 14
22 22 21 21 22 23 23 22 21 21 21 20 20 19 17 16 15 15 16 16 15 15 15 15 14 14 14 14 14 15 14 14 13 13 13 14 14 14 14 13 14 14 14 14 14 14 14 14 15
22 21 20 20 21 23 23 22 21 21 21 20 20 19 19 17 16 16 17 17 17 17 17 16 16 15 15 15 15 15 15 14 14 14 14 14 14 15 15 15 15 15 15 15 15 16 15 16 16
22 21 21 21 22 23 23 24 21 21 20 20 19 18 18 17 17 17 16 17 17 17 17 17 17 16 16 16 15 15 15 15 15 15 15 15 14 15 15 15 16 16 16 16 16 16 16 17 17
22 21 22 22 23 23 23 24 21 21 20 19 19 19 18 18 17 18 17 18 18 18 18 18 17 17 16 16 15 15 15 16 16 16 16 16 16 16 16 16 16 16 17 17 17 18 17 17 18
22 22 23 24 24 24 22 23 20 19 18 19 19 19 19 18 18 18 18 18 18 18 17 17 17 17 17 16 16 16 16 16 17 17 17 17 17 17 17 17 17 17 17 17 18 18 18 18 19
22 22 23 24 24 23 21 22 19 18 18 18 19 19 19 19 19 19 18 18 18 18 18 17 17 17 17 17 17 17 18 18 17 18 18 18 18 18 19 19 18 18 18 18 18 19 19 20 20
21 22 23 24 24 22 22 22 20 18 18 18 18 18 18 18 18 18 18 19 18 18 18 18 18 18 19 19 19 19 19 18 18 18 19 19 19 19 19 19 19 18 19 19 19 20 20 20 21
22 23 23 25 25 24 23 22 20 19 17 17 17 17 17 18 18 19 19 19 18 18 18 19 19 20 19 19 19 19 19 18 18 18 19 20 20 20 20 20 20 20 20 20 21 21 21 21 21
22 22 23 25 25 25 24 22 20 18 18 17 17 17 18 19 19 19 19 20 19 19 19 19 19 20 20 20 19 19 19 18 19 20 20 20 21 21 21 21 21 21 22 22 22 22 22 22 22
23 24 25 25 26 26 24 22 20 19 18 19 18 18 19 19 19 19 20 20 20 20 20 20 20 20 20 20 19 19 19 19 20 21 21 20 21 21 21 21 21 22 22 22 22 22 23 23 23
24 25 25 25 26 25 25 22 21 20 19 19 20 20 20 20 21 21 22 22 22 21 21 21 20 20 19 19 19 20 20 20 20 20 20 20 20 20 20 20 21 21 21 22 22 22 23 23 23
Wind_Direction
187 186 183 194 227 291 348 9 27 24 23 24 21 18 15 14 11 7 4 1 358 353 353 353 352 353 356 359 2 5 4 2 7 4 358 4 358 355 341 318 310 302 297 280 276 265 253 248 237
213 206 210 225 253 266 308 341 7 12 11 13 16 13 8 7 7 5 359 358 355 350 347 346 348 350 350 355 359 359 358 356 357 355 353 350 345 349 345 311 301 302 298 285 276 264 257 250 232
225 228 232 241 255 256 282 320 348 354 354 4 7 5 359 359 1 358 354 350 349 347 342 338 342 346 344 346 353 353 350 349 345 343 342 338 332 336 328 302 297 304 298 289 276 256 246 246 232
232 234 240 251 256 252 264 298 334 337 344 356 358 358 352 352 351 351 350 347 345 344 340 339 343 347 345 340 343 348 341 337 337 337 333 325 318 314 306 297 296 289 279 283 277 255 246 253 236
237 240 245 255 256 257 260 271 299 328 335 347 350 349 344 342 342 344 348 348 343 339 335 338 344 348 345 338 334 335 330 325 322 318 324 319 313 306 299 289 289 279 270 267 266 259 262 256 241
242 243 246 252 252 256 265 283 292 307 325 333 338 338 335 334 339 339 340 345 340 338 334 335 340 346 346 339 332 327 323 323 318 315 310 309 302 296 288 283 287 282 277 268 254 254 256 265 254
245 247 249 253 255 262 270 279 292 301 314 320 328 330 328 328 331 333 334 341 341 337 334 338 341 342 339 332 327 326 320 318 313 312 301 304 299 291 288 286 283 278 275 273 261 244 260 261 257
249 251 251 256 258 266 275 285 292 297 302 307 314 322 325 329 330 329 333 340 342 338 335 331 332 336 331 325 322 326 327 317 308 304 304 301 299 299 298 293 280 272 268 266 256 256 258 255 255
252 255 256 261 263 268 273 283 289 296 298 299 302 310 318 324 329 328 328 330 336 336 331 325 328 324 324 319 320 318 311 310 304 298 303 305 299 299 307 308 296 282 270 267 264 259 252 248 248
252 256 257 262 265 269 273 279 284 289 293 298 297 302 311 316 322 324 322 321 323 330 330 325 316 312 315 313 308 307 307 308 305 303 301 298 292 293 305 307 300 289 281 275 273 265 254 250 246
253 256 260 264 266 271 273 273 280 285 291 295 295 299 305 307 314 319 321 321 320 320 319 314 304 302 303 304 303 300 298 302 310 307 298 294 290 287 291 299 296 291 289 289 283 279 267 259 250
252 255 260 264 265 269 273 272 277 286 288 287 290 295 296 300 306 309 314 316 317 317 313 307 304 298 293 295 297 297 294 296 297 296 298 295 288 285 285 290 290 285 287 290 290 281 276 267 255
251 254 256 261 263 266 269 273 278 285 288 284 285 290 293 297 297 296 303 309 309 309 307 301 299 298 292 292 292 291 287 288 291 292 292 295 294 287 281 285 286 279 278 280 281 282 276 267 253
253 253 252 257 261 263 265 270 275 280 283 282 285 291 293 295 293 286 289 297 304 303 304 301 298 296 295 287 285 287 281 281 284 288 292 293 292 285 283 285 283 275 272 275 276 275 274 263 255
253 253 250 251 256 259 264 266 271 276 279 283 285 288 288 289 286 283 284 292 301 299 300 301 300 295 293 286 282 280 278 276 279 281 285 287 286 283 279 277 277 270 266 268 266 268 271 264 255
253 252 251 253 257 260 261 265 267 272 275 278 282 285 286 283 279 278 282 288 293 296 298 298 296 295 290 287 281 280 279 279 277 279 282 281 281 280 276 274 275 270 265 263 262 262 265 262 257
252 253 255 256 258 259 260 262 264 268 270 272 275 279 279 275 272 275 283 285 286 291 293 294 292 293 292 288 280 277 278 280 280 278 276 276 277 278 276 273 272 268 262 260 262 261 261 260 257
255 256 258 259 258 257 260 263 265 265 267 270 272 273 273 271 268 271 277 281 285 290 291 291 293 293 292 290 287 284 281 280 283 286 276 274 274 275 274 273 270 267 267 266 264 263 261 260 258
256 256 258 258 258 261 262 264 265 265 264 268 270 269 267 268 265 264 269 272 278 284 287 289 288 288 289 290 288 287 284 285 284 286 279 274 273 274 275 273 271 270 270 268 266 264 262 260 259
257 258 259 259 259 262 263 264 264 262 263 266 267 266 262 261 263 263 264 266 271 276 280 285 284 285 287 290 290 286 285 286 285 283 282 278 273 274 273 274 271 270 269 270 268 265 263 263 260
258 259 261 263 261 263 265 263 263 262 263 264 264 263 260 259 260 260 262 264 267 272 277 280 282 284 288 289 289 288 287 285 284 283 282 280 277 274 271 270 270 270 270 271 269 266 264 264 261
257 260 262 263 264 265 266 265 263 262 263 262 262 262 261 261 259 259 262 263 267 272 276 279 278 281 286 286 284 282 283 285 284 283 281 280 279 276 273 272 271 270 270 271 270 267 266 265 260
256 259 261 262 263 266 268 270 268 264 264 261 260 260 259 261 261 260 260 262 265 271 273 275 273 278 281 282 283 282 282 284 284 283 282 280 277 276 276 275 272 268 269 270 269 268 267 267 261
254 257 260 261 264 267 270 273 268 266 268 264 261 260 259 260 260 260 261 261 263 267 270 271 274 277 279 281 282 282 281 282 283 283 282 281 279 276 277 274 273 269 269 269 270 269 268 267 265
252 255 259 262 265 269 270 270 270 268 267 264 261 260 259 260 260 260 261 263 262 264 266 269 273 276 279 280 280 281 281 281 282 282 281 280 279 277 277 276 276 270 268 269 269 268 268 267 266
254 257 261 266 269 272 269 269 269 269 266 263 264 262 260 260 260 260 260 263 263 263 263 267 271 277 279 278 278 279 280 282 283 283 281 280 278 276 275 277 276 273 271 271 271 269 269 269 268
255 256 260 265 268 271 269 268 267 266 264 263 263 262 260 260 261 261 263 264 263 262 264 268 271 274 276 276 277 278 279 281 283 284 284 281 279 277 276 276 273 271 272 273 273 272 270 269 268
255 257 259 263 267 270 269 267 269 267 264 265 261 261 259 260 261 263 265 263 262 264 267 268 271 273 273 274 275 277 278 280 283 285 286 283 280 279 277 276 273 272 272 274 275 273 270 269 269
255 256 258 262 265 269 270 269 271 268 263 262 261 259 257 257 261 263 263 263 263 265 266 267 271 274 274 272 273 275 277 281 282 284 284 280 280 279 277 274 272 272 273 274 274 273 270 268 268
256 258 259 260 264 266 268 271 272 270 264 264 262 258 257 258 259 260 261 261 263 265 267 266 270 274 274 272 272 274 278 281 282 283 283 280 279 277 277 274 273 273 274 275 275 273 270 267 266
Height
5884 5884 5885 5887 5888 5887 5886 5886 5885 5885 5885 5884 5884 5883 5883 5883 5883 5884 5882 5879 5879 5878 5878 5877 5876 5876 5875 5875 5875 5875 5874 5875 5875 5875 5875 5875 5876 5876 5876 5876 5877 5877 5877 5877 5878 5878 5879 5880 5880
5884 5885 5886 5887 5886 5886 5886 5885 5885 5885 5885 5884 5883 5883 5883 5882 5882 5881 5880 5879 5879 5878 5877 5877 5876 5875 5875 5874 5874 5874 5874 5874 5874 5874 5875 5875 5875 5876 5876 5876 5877 5877 5877 5877 5877 5878 5878 5879 5880
5884 5884 5886 5886 5885 5886 5886 5885 5885 5885 5885 5884 5884 5883 5882 5882 5881 5881 5880 5879 5878 5878 5877 5876 5875 5875 5874 5874 5874 5874 5874 5874 5874 5874 5874 5875 5875 5875 5875 5876 5876 5876 5876 5877 5877 5877 5878 5878 5879
5884 5885 5885 5886 5885 5885 5885 5885 5885 5885 5885 5884 5883 5883 5882 5882 5881 5880 5879 5879 5878 5877 5876 5876 5875 5874 5874 5874 5873 5873 5873 5873 5873 5873 5874 5874 5874 5874 5875 5875 5875 5876 5876 5876 5876 5876 5877 5877 5878
5883 5884 5884 5884 5884 5884 5884 5884 5884 5884 5884 5884 5883 5882 5882 5882 5881 5880 5879 5878 5877 5876 5876 5875 5874 5874 5873 5873 5873 5873 5873 5873 5873 5873 5873 5873 5873 5874 5874 5874 5874 5874 5875 5875 5876 5876 5876 5877 5877
5882 5883 5883 5883 5883 5883 5883 5883 5883 5884 5883 5883 5882 5882 5881 5881 5880 5879 5878 5877 5876 5875 5875 5874 5873 5873 5873 5873 5873 5872 5872 5872 5872 5872 5872 5872 5873 5873 5873 5873 5873 5873 5874 5874 5875 5875 5876 5876 5876
5881 5882 5881 5882 5882 5882 5882 5882 5882 5882 5882 5882 5882 5881 5880 5880 5879 5878 5877 5876 5875 5874 5874 5873 5872 5872 5872 5872 5872 5872 5871 5871 5871 5871 5871 5871 5872 5872 5872 5872 5872 5872 5873 5873 5874 5874 5875 5875 5876
5879 5880 5880 5880 5881 5881 5881 5880 5880 5881 5881 5881 5881 5880 5879 5879 5878 5877 5876 5875 5874 5873 5873 5872 5872 5872 5871 5871 5871 5871 5871 5871 5870 5870 5870 5870 5870 5871 5871 5871 5871 5871 5871 5872 5872 5873 5874 5874 5875
5877 5879 5878 5879 5879 5879 5879 5879 5879 5879 5879 5879 5879 5879 5879 5877 5877 5876 5875 5874 5874 5873 5872 5872 5871 5871 5871 5871 5870 5870 5870 5870 5869 5869 5869 5869 5869 5869 5870 5869 5869 5869 5870 5870 5871 5871 5872 5873 5874
5875 5876 5876 5877 5877 5877 5877 5877 5877 5877 5878 5877 5877 5877 5877 5876 5875 5875 5874 5873 5873 5872 5871 5871 5870 5870 5870 5870 5870 5869 5869 5869 5868 5868 5868 5868 5868 5868 5869 5869 5868 5868 5868 5869 5869 5869 5870 5871 5872
5872 5873 5874 5874 5874 5874 5874 5874 5875 5875 5876 5876 5876 5876 5875 5875 5874 5873 5873 5872 5871 5871 5870 5869 5869 5869 5869 5869 5869 5869 5868 5868 5868 5867 5867 5867 5867 5867 5868 5868 5867 5867 5867 5867 5867 5868 5868 5869 5870
5870 5871 5871 5871 5872 5872 5872 5872 5873 5873 5874 5874 5873 5873 5873 5873 5872 5872 5871 5870 5870 5869 5868 5868 5868 5868 5867 5867 5867 5867 5867 5867 5867 5866 5866 5866 5866 5866 5866 5866 5866 5866 5866 5866 5866 5867 5867 5868 5868
5866 5868 5868 5869 5869 5869 5870 5870 5870 5871 5871 5871 5871 5871 5871 5870 5870 5869 5869 5868 5868 5867 5867 5866 5866 5866 5866 5866 5865 5865 5865 5865 5865 5865 5865 5865 5865 5865 5865 5865 5864 5864 5864 5865 5865 5865 5865 5866 5866
5863 5864 5865 5866 5866 5866 5867 5867 5868 5868 5868 5868 5868 5868 5868 5868 5867 5867 5866 5866 5866 5866 5865 5865 5864 5864 5864 5864 5864 5863 5863 5863 5863 5863 5863 5863 5863 5863 5863 5863 5863 5862 5863 5862 5863 5863 5863 5864 5864
5859 5861 5862 5862 5862 5862 5863 5864 5865 5865 5865 5865 5865 5865 5865 5865 5865 5865 5864 5864 5864 5864 5864 5863 5863 5862 5862 5862 5862 5861 5861 5861 5861 5861 5861 5861 5861 5861 5861 5861 5861 5860 5860 5860 5861 5861 5861 5862 5862
5855 5857 5858 5859 5859 5859 5861 5861 5862 5861 5862 5862 5862 5862 5862 5862 5863 5863 5863 5862 5862 5862 5862 5861 5861 5860 5860 5860 5859 5859 5859 5859 5859 5859 5859 5859 5858 5858 5858 5858 5858 5858 5858 5858 5859 5859 5859 5860 5860
5851 5852 5854 5855 5855 5855 5855 5856 5858 5857 5858 5858 5858 5858 5858 5859 5859 5860 5860 5860 5859 5859 5859 5859 5859 5858 5858 5857 5857 5857 5856 5856 5856 5856 5856 5856 5856 5856 5855 5855 5855 5856 5856 5856 5856 5857 5857 5857 5858
5847 5848 5849 5851 5851 5851 5851 5852 5853 5853 5854 5854 5855 5855 5855 5855 5856 5856 5856 5857 5857 5857 5857 5856 5856 5856 5856 5855 5855 5854 5854 5853 5853 5853 5852 5853 5853 5852 5852 5852 5852 5853 5853 5853 5853 5854 5854 5854 5855
5842 5844 5845 5846 5846 5846 5847 5848 5849 5848 5849 5850 5851 5851 5851 5851 5851 5852 5852 5853 5853 5854 5854 5854 5853 5853 5853 5852 5852 5851 5851 5850 5850 5849 5849 5849 5849 5849 5849 5849 5849 5849 5850 5850 5850 5850 5851 5851 5852
5838 5839 5841 5842 5842 5841 5842 5842 5844 5844 5844 5845 5846 5846 5846 5847 5847 5848 5848 5849 5850 5850 5850 5850 5850 5850 5850 5849 5848 5848 5847 5847 5847 5846 5846 5845 5845 5845 5845 5846 5846 5846 5846 5846 5846 5846 5847 5847 5848
5834 5835 5837 5837 5837 5836 5837 5838 5839 5840 5840 5841 5841 5841 5842 5842 5843 5843 5844 5845 5845 5846 5846 5846 5846 5846 5846 5845 5845 5844 5844 5844 5843 5843 5842 5842 5841 5841 5841 5842 5842 5842 5842 5842 5842 5842 5843 5843 5844
5830 5831 5831 5832 5832 5832 5832 5832 5835 5835 5835 5836 5837 5837 5838 5838 5838 5839 5840 5840 5841 5842 5842 5842 5842 5842 5842 5842 5841 5841 5841 5840 5840 5839 5839 5839 5838 5837 5837 5837 5837 5837 5837 5838 5838 5838 5839 5839 5839
5825 5826 5826 5826 5827 5827 5827 5827 5831 5830 5831 5832 5833 5833 5833 5834 5834 5835 5835 5836 5837 5837 5838 5838 5838 5838 5838 5838 5837 5837 5837 5836 5836 5835 5835 5834 5834 5833 5833 5833 5833 5833 5833 5833 5833 5833 5834 5834 5835
5820 5821 5821 5821 5822 5823 5824 5823 5825 5826 5827 5827 5827 5828 5828 5829 5829 5830 5831 5832 5833 5833 5833 5834 5834 5834 5834 5834 5833 5833 5833 5832 5832 5831 5830 5829 5829 5828 5828 5828 5828 5828 5829 5829 5829 5829 5829 5829 5829
5815 5816 5817 5816 5817 5818 5819 5818 5821 5822 5822 5822 5822 5823 5823 5824 5825 5826 5826 5827 5828 5828 5829 5829 5829 5829 5829 5829 5829 5828 5828 5827 5827 5826 5826 5825 5824 5824 5823 5823 5823 5823 5823 5824 5824 5824 5824 5824 5824
5810 5812 5812 5812 5812 5813 5814 5813 5816 5816 5817 5817 5817 5818 5819 5819 5820 5821 5822 5822 5823 5824 5824 5824 5824 5824 5824 5824 5824 5823 5823 5822 5822 5821 5821 5820 5819 5819 5818 5818 5818 5818 5818 5818 5818 5818 5818 5818 5818
5805 5805 5807 5807 5806 5807 5808 5809 5811 5811 5812 5812 5813 5813 5814 5815 5816 5817 5817 5818 5818 5818 5819 5819 5819 5819 5819 5819 5818 5818 5818 5817 5817 5816 5815 5814 5814 5813 5813 5813 5813 5813 5813 5813 5812 5812 5813 5813 5813
5800 5800 5801 5801 5800 5801 5802 5803 5805 5806 5807 5808 5808 5809 5810 5810 5811 5812 5812 5813 5813 5813 5814 5814 5814 5814 5813 5813 5813 5813 5813 5812 5811 5810 5809 5809 5808 5808 5807 5807 5807 5807 5807 5807 5807 5807 5806 5807 5807
5794 5795 5795 5795 5796 5796 5796 5800 5800 5801 5802 5803 5804 5804 5805 5806 5806 5807 5807 5807 5808 5808 5808 5808 5808 5808 5808 5808 5808 5807 5807 5806 5805 5804 5803 5803 5802 5802 5801 5801 5801 5801 5801 5800 5800 5800 5800 5800 5800
5788 5789 5790 5791 5790 5790 5791 5796 5795 5795 5796 5797 5798 5799 5799 5800 5801 5801 5801 5801 5802 5802 5802 5802 5802 5802 5802 5802 5802 5802 5801 5800 5799 5798 5797 5796 5796 5796 5795 5795 5795 5795 5794 5794 5793 5793 5793 5794 5794